This is the latest recevied weather packets stored in our database for station/object F1AGU-13. If no packets are shown the sender has not sent any weather packets the latest 10 day(s).
| Time | Temp. | Humidity | Pressure | Rain* | Wind** | Luminosity | Snow |
|---|---|---|---|---|---|---|---|
| 1787659816 | 23.89° C | 53% | 1016.2 hPa | 0 mm | - | - | - |
| 1787659216 | 23.89° C | 54% | 1016.1 hPa | 0 mm | - | - | - |
| 1787658616 | 23.89° C | 54% | 1016.2 hPa | 0 mm | - | - | - |
| 1787658016 | 23.89° C | - | - | 0 mm | - | - | - |
| 1787658015 | 23.89° C | 56% | 1016.2 hPa | 0 mm | - | - | - |
| 1787657416 | 23.33° C | 54% | 1016.3 hPa | 0 mm | - | - | - |
| 1787656818 | 23.33° C | 57% | 1016.2 hPa | 0 mm | - | - | - |
| 1787656215 | 23.33° C | 56% | 1016.3 hPa | 0 mm | - | - | - |
| 1787655615 | 23.33° C | 55% | 1016.3 hPa | 0 mm | - | - | - |
| 1787655015 | 22.78° C | 58% | 1016.1 hPa | 0 mm | - | - | - |
| 1787654415 | 22.22° C | 67% | 1016 hPa | 0 mm | - | - | - |
| 1787653815 | 22.22° C | 68% | 1015.9 hPa | 0 mm | - | - | - |
| 1787653215 | 21.67° C | 67% | 1015.9 hPa | 0 mm | - | - | - |
| 1787652615 | 21.67° C | 69% | 1015.9 hPa | 0 mm | - | - | - |
| 1787652015 | 21.11° C | 71% | 1015.7 hPa | 0 mm | - | - | - |
| 1787651415 | 21.11° C | 71% | 1015.7 hPa | 0 mm | - | - | - |
| 1787650815 | 20.56° C | 78% | 1015.8 hPa | 0 mm | - | - | - |
| 1787650217 | 20° C | 79% | 1015.8 hPa | 0 mm | - | - | - |
| 1787649617 | 19.44° C | 79% | 1015.6 hPa | 0 mm | - | - | - |
| 1787649017 | 18.89° C | 86% | 1015.7 hPa | 0 mm | - | - | - |
| 1787648417 | 17.78° C | 83% | 1015.6 hPa | 0 mm | - | - | - |
| 1787647817 | 17.78° C | 88% | 1015.6 hPa | 0 mm | - | - | - |
| 1787647215 | 16.67° C | 92% | 1015.4 hPa | 0 mm | - | - | - |
| 1787646617 | 16.11° C | 90% | 1015.7 hPa | 0 mm | - | - | - |
| 1787646017 | 15.56° C | 95% | 1015.5 hPa | 0 mm | - | - | - |
* Rain latest hour (hover to see other rain measurements)
** Current wind speed in m/s (hover to see current wind gust speed)